When you browse on this site, cookies collect data to enhance your experience and personalize the content and advertising you see.
Visit our Privacy Policy to learn more. By continuing to use the site, you agree to this use of cookies and data.
  • In Österreich
  • Länderverzeichnis
  • Für 7 Tage
  • Wassertemperatur
  • Wetterkarte
  • News
  • Widgets
  • user-avatar
    Anmelden

    Stündliche Wetter Bezha

    Heute, 25 Mai, Montag

    Zeit Temperatur Niederschläge Wind Luftdruck Luftfeuchtigkeit
    00:00 +20°C° 0 mm 2 m/S 746 mmHg 75%
    01:00 +20°C° 0 mm 1 m/S 746 mmHg 77%
    02:00 +20°C° 0 mm 1 m/S 745 mmHg 79%
    03:00 +20°C° 0 mm 1 m/S 745 mmHg 79%
    04:00 +19°C° 0 mm 1 m/S 745 mmHg 79%
    05:00 +19°C° 0 mm 1 m/S 745 mmHg 79%
    06:00 +20°C° 0 mm 2 m/S 745 mmHg 69%
    07:00 +24°C° 0 mm 2 m/S 746 mmHg 59%
    08:00 +26°C° 0 mm 2 m/S 746 mmHg 50%
    09:00 +28°C° 0 mm 2 m/S 746 mmHg 43%
    10:00 +30°C° 0 mm 2 m/S 746 mmHg 36%
    11:00 +33°C° 0 mm 3 m/S 745 mmHg 30%
    12:00 +34°C° 0 mm 3 m/S 745 mmHg 29%
    13:00 +34°C° 0 mm 3 m/S 745 mmHg 28%
    14:00 +35°C° 0 mm 3 m/S 745 mmHg 26%
    15:00 +34°C° 0 mm 3 m/S 744 mmHg 30%
    16:00 +34°C° 0 mm 3 m/S 744 mmHg 33%
    17:00 +33°C° 0 mm 4 m/S 744 mmHg 37%
    18:00 +29°C° 0 mm 3 m/S 744 mmHg 47%
    19:00 +27°C° 0 mm 3 m/S 744 mmHg 56%
    20:00 +24°C° 0 mm 2 m/S 744 mmHg 66%
    21:00 +23°C° 0 mm 2 m/S 744 mmHg 68%
    22:00 +23°C° 0 mm 1 m/S 744 mmHg 71%
    23:00 +22°C° 0 mm 1 m/S 744 mmHg 73%

    Morgen, 26 Mai, Dienstag

    Zeit Temperatur Niederschläge Wind Luftdruck Luftfeuchtigkeit
    00:00 +21°C° 0 mm 1 m/S 744 mmHg 74%
    01:00 +21°C° 0 mm 1 m/S 743 mmHg 76%
    02:00 +21°C° 0 mm 1 m/S 743 mmHg 77%
    03:00 +21°C° 0 mm 1 m/S 743 mmHg 76%
    04:00 +21°C° 0 mm 1 m/S 743 mmHg 76%
    05:00 +19°C° 0 mm 0 m/S 743 mmHg 76%
    06:00 +21°C° 0 mm 0 m/S 744 mmHg 68%
    07:00 +25°C° 0 mm 1 m/S 744 mmHg 60%
    08:00 +27°C° 0 mm 1 m/S 745 mmHg 52%
    09:00 +29°C° 0 mm 1 m/S 744 mmHg 47%
    10:00 +31°C° 0 mm 1 m/S 744 mmHg 42%
    11:00 +33°C° 0 mm 1 m/S 744 mmHg 37%
    12:00 +34°C° 0 mm 1 m/S 744 mmHg 34%
    13:00 +35°C° 0 mm 2 m/S 744 mmHg 30%
    14:00 +36°C° 0 mm 2 m/S 743 mmHg 27%
    15:00 +34°C° 0 mm 3 m/S 743 mmHg 32%
    16:00 +33°C° 0 mm 4 m/S 743 mmHg 37%
    17:00 +30°C° 0 mm 5 m/S 743 mmHg 42%
    18:00 +28°C° 0 mm 4 m/S 743 mmHg 48%
    19:00 +26°C° 0 mm 4 m/S 743 mmHg 55%
    20:00 +22°C° 0 mm 4 m/S 744 mmHg 62%
    21:00 +21°C° 0 mm 3 m/S 743 mmHg 65%
    22:00 +20°C° 0 mm 2 m/S 743 mmHg 69%
    23:00 +19°C° 0 mm 2 m/S 743 mmHg 73%

    übermorgen, 27 Mai, Mittwoch

    Zeit Temperatur Niederschläge Wind Luftdruck Luftfeuchtigkeit
    00:00 +20°C° 0 mm 1 m/S 743 mmHg 73%
    01:00 +20°C° 0 mm 1 m/S 742 mmHg 74%
    02:00 +19°C° 0 mm 1 m/S 742 mmHg 74%
    03:00 +20°C° 0 mm 1 m/S 742 mmHg 74%
    04:00 +20°C° 0 mm 1 m/S 742 mmHg 74%
    05:00 +20°C° 0 mm 1 m/S 742 mmHg 74%
    06:00 +21°C° 0 mm 2 m/S 743 mmHg 64%
    07:00 +25°C° 0 mm 2 m/S 743 mmHg 54%
    08:00 +27°C° 0 mm 2 m/S 743 mmHg 44%
    09:00 +29°C° 0 mm 3 m/S 743 mmHg 39%
    10:00 +31°C° 0 mm 3 m/S 743 mmHg 34%
    11:00 +33°C° 0 mm 4 m/S 743 mmHg 30%
    12:00 +34°C° 0 mm 4 m/S 743 mmHg 28%
    13:00 +35°C° 0 mm 3 m/S 743 mmHg 27%
    14:00 +36°C° 0 mm 3 m/S 743 mmHg 26%
    15:00 +34°C° 0 mm 3 m/S 742 mmHg 30%
    16:00 +33°C° 0 mm 3 m/S 742 mmHg 35%
    17:00 +30°C° 0 mm 4 m/S 742 mmHg 39%
    18:00 +28°C° 0 mm 4 m/S 742 mmHg 47%
    19:00 +25°C° 0 mm 4 m/S 743 mmHg 55%
    20:00 +22°C° 0 mm 4 m/S 743 mmHg 62%
    21:00 +21°C° 0 mm 3 m/S 743 mmHg 65%
    22:00 +20°C° 0 mm 3 m/S 743 mmHg 68%
    23:00 +20°C° 0 mm 3 m/S 743 mmHg 71%

    28 Mai, Donnerstag

    Zeit Temperatur Niederschläge Wind Luftdruck Luftfeuchtigkeit
    00:00 +20°C° 0 mm 3 m/S 743 mmHg 69%
    01:00 +19°C° 0 mm 2 m/S 742 mmHg 67%
    02:00 +19°C° 0 mm 2 m/S 742 mmHg 65%
    03:00 +20°C° 0 mm 1 m/S 742 mmHg 65%
    04:00 +20°C° 0 mm 1 m/S 742 mmHg 65%
    05:00 +18°C° 0 mm 0 m/S 742 mmHg 64%
    06:00 +22°C° 0 mm 1 m/S 742 mmHg 56%
    07:00 +25°C° 0 mm 2 m/S 743 mmHg 48%
    08:00 +27°C° 0 mm 3 m/S 743 mmHg 40%
    09:00 +29°C° 0 mm 2 m/S 743 mmHg 37%
    10:00 +30°C° 0 mm 2 m/S 743 mmHg 34%
    11:00 +32°C° 0 mm 2 m/S 743 mmHg 32%
    12:00 +34°C° 0 mm 2 m/S 742 mmHg 30%
    13:00 +35°C° 0 mm 2 m/S 742 mmHg 28%
    14:00 +36°C° 0 mm 2 m/S 742 mmHg 26%
    15:00 +34°C° 0 mm 3 m/S 742 mmHg 32%
    16:00 +32°C° 0 mm 4 m/S 741 mmHg 37%
    17:00 +29°C° 0 mm 5 m/S 741 mmHg 43%
    18:00 +27°C° 0 mm 5 m/S 741 mmHg 52%
    19:00 +23°C° 0 mm 4 m/S 742 mmHg 61%
    20:00 +21°C° 0 mm 4 m/S 742 mmHg 70%
    21:00 +21°C° 0 mm 3 m/S 742 mmHg 72%
    22:00 +20°C° 0 mm 3 m/S 742 mmHg 74%
    23:00 +20°C° 0 mm 2 m/S 742 mmHg 77%

    29 Mai, Freitag

    Zeit Temperatur Niederschläge Wind Luftdruck Luftfeuchtigkeit
    00:00 +19°C° 0 mm 2 m/S 741 mmHg 78%
    01:00 +19°C° 0 mm 2 m/S 741 mmHg 78%
    02:00 +19°C° 0 mm 2 m/S 741 mmHg 79%
    03:00 +19°C° 0 mm 2 m/S 741 mmHg 79%
    04:00 +20°C° 0 mm 1 m/S 741 mmHg 80%
    05:00 +20°C° 0 mm 1 m/S 741 mmHg 80%
    06:00 +22°C° 0 mm 1 m/S 741 mmHg 71%
    07:00 +24°C° 0 mm 1 m/S 741 mmHg 61%
    08:00 +27°C° 0 mm 1 m/S 741 mmHg 52%
    09:00 +29°C° 0 mm 1 m/S 741 mmHg 44%
    10:00 +31°C° 0 mm 1 m/S 741 mmHg 37%
    11:00 +34°C° 0 mm 1 m/S 741 mmHg 30%
    12:00 +35°C° 0 mm 2 m/S 741 mmHg 27%
    13:00 +36°C° 0 mm 2 m/S 740 mmHg 24%
    14:00 +37°C° 0 mm 3 m/S 740 mmHg 21%
    15:00 +36°C° 0 mm 3 m/S 740 mmHg 25%
    16:00 +35°C° 0 mm 4 m/S 739 mmHg 28%
    17:00 +34°C° 0 mm 5 m/S 739 mmHg 31%
    18:00 +32°C° 0 mm 5 m/S 739 mmHg 38%
    19:00 +29°C° 0 mm 5 m/S 740 mmHg 44%
    20:00 +27°C° 0 mm 5 m/S 740 mmHg 50%
    21:00 +26°C° 0 mm 4 m/S 740 mmHg 52%
    22:00 +25°C° 0 mm 3 m/S 740 mmHg 55%
    23:00 +24°C° 0 mm 2 m/S 740 mmHg 58%

    30 Mai, Samstag

    Zeit Temperatur Niederschläge Wind Luftdruck Luftfeuchtigkeit
    00:00 +23°C° 0 mm 2 m/S 739 mmHg 59%
    01:00 +23°C° 0 mm 2 m/S 739 mmHg 60%
    02:00 +21°C° 0 mm 2 m/S 739 mmHg 61%
    03:00 +22°C° 0 mm 1 m/S 739 mmHg 62%
    04:00 +22°C° 0 mm 1 m/S 739 mmHg 63%
    05:00 +22°C° 0 mm 1 m/S 739 mmHg 63%
    06:00 +25°C° 0 mm 1 m/S 739 mmHg 56%
    07:00 +27°C° 0 mm 1 m/S 739 mmHg 50%
    08:00 +29°C° 0 mm 1 m/S 740 mmHg 43%
    09:00 +31°C° 0 mm 1 m/S 740 mmHg 38%
    10:00 +33°C° 0 mm 1 m/S 740 mmHg 34%
    11:00 +35°C° 0 mm 1 m/S 740 mmHg 29%
    12:00 +36°C° 0 mm 2 m/S 739 mmHg 28%
    13:00 +37°C° 0 mm 2 m/S 739 mmHg 26%
    14:00 +37°C° 0 mm 2 m/S 739 mmHg 24%
    15:00 +36°C° 0 mm 3 m/S 739 mmHg 27%
    16:00 +35°C° 0 mm 4 m/S 738 mmHg 30%
    17:00 +34°C° 0 mm 4 m/S 738 mmHg 33%
    18:00 +32°C° 0 mm 4 m/S 738 mmHg 38%
    19:00 +29°C° 0 mm 4 m/S 738 mmHg 44%
    20:00 +27°C° 0 mm 3 m/S 738 mmHg 49%
    21:00 +26°C° 0 mm 3 m/S 738 mmHg 51%
    22:00 +25°C° 0 mm 2 m/S 738 mmHg 53%
    23:00 +24°C° 0 mm 2 m/S 738 mmHg 55%
    Mehr zeigen